EW5961 Weather Reports


time (UTC)temp
C
wind
direction
speed
KPH
gust
KPH
rain 1hr
cm
rain 24hr
cm
rain mn
cm
humidity
%
barometer
mb
20260504003003 28 328 12.9 24.1 0.00 0.00 0.00 79 1012.8
20260504001506 28 326 17.7 27.4 0.00 0.00 0.00 79 1012.8
20260504000002 28 355 16.1 22.5 0.00 0.00 0.00 78 1012.4
20260503234502 28 5 14.5 27.4 0.00 0.00 0.00 77 1012.4
20260503233001 28 17 17.7 27.4 0.00 0.00 0.00 77 1012.1
20260503230105 29 5 14.5 25.7 0.00 0.00 0.00 76 1011.9
20260503224609 30 36 16.1 29.0 0.00 0.00 0.00 76 1011.9
20260503223058 30 38 12.9 25.7 0.00 0.00 0.00 76 1011.8
20260503221606 30 355 16.1 25.7 0.00 0.00 0.00 75 1011.5
20260503220057 30 350 11.3 24.1 0.00 0.00 0.00 74 1011.3
20260503214556 31 23 14.5 22.5 0.00 0.00 0.00 73 1011.4
20260503213057 31 350 17.7 24.1 0.00 0.00 0.00 71 1011.4
20260503211556 31 342 11.3 19.3 0.00 0.00 0.00 69 1011.6
20260503210055 32 22 9.7 22.5 0.00 0.00 0.00 69 1011.9
20260503204616 32 355 11.3 22.5 0.00 0.00 0.00 66 1011.8
20260503203057 32 36 12.9 19.3 0.00 0.00 0.00 65 1012.2
20260503201551 32 360 11.3 22.5 0.00 0.00 0.00 66 1012.4
20260503200050 32 37 14.5 24.1 0.00 0.00 0.00 65 1012.5
20260503194548 33 19 14.5 24.1 0.00 0.00 0.00 65 1012.7
20260503193048 33 355 9.7 25.7 0.00 0.00 0.00 65 1012.9
20260503191605 32 19 16.1 25.7 0.00 0.00 0.00 65 1013.0
20260503190039 32 338 9.7 24.1 0.00 0.00 0.00 66 1013.1
20260503184538 32 350 12.9 24.1 0.00 0.00 0.00 66 1013.5
20260503183037 32 46 14.5 27.4 0.00 0.00 0.00 67 1013.6
20260503181545 32 314 8.0 25.7 0.00 0.00 0.00 68 1013.6
20260503180036 32 346 11.3 25.7 0.00 0.00 0.00 68 1013.9
20260503174534 31 5 14.5 25.7 0.00 0.00 0.00 70 1013.9
20260503173030 31 9 17.7 25.7 0.00 0.00 0.00 71 1014.1
20260503171527 31 277 14.5 27.4 0.00 0.00 0.00 71 1014.4
20260503160119 30 355 12.9 27.4 0.00 0.00 0.00 75 1014.8
20260503081512 27 331 3.2 8.0 0.00 0.00 0.00 82 1011.3
20260503071506 27 40 4.8 9.7 0.00 0.00 0.00 80 1012.1
20260503054610 27 41 6.4 12.9 0.00 0.00 0.00 80 1013.1
20260503053055 28 11 4.8 14.5 0.00 0.00 0.00 80 1013.4
20260503051555 28 84 4.8 8.0 0.00 0.00 0.00 80 1013.8
20260503050154 28 65 4.8 12.9 0.00 0.00 0.00 80 1013.9
20260503044553 28 97 4.8 12.9 0.00 0.00 0.00 79 1013.9
20260503043056 28 89 11.3 17.7 0.00 0.00 0.00 80 1013.8
20260503041550 28 69 8.0 17.7 0.00 0.00 0.00 80 1013.4
20260503040054 28 72 6.4 14.5 0.00 0.00 0.00 79 1013.3
20260503034648 28 42 9.7 19.3 0.00 0.00 0.00 79 1013.0
20260503033044 28 64 9.7 16.1 0.00 0.00 0.00 79 1012.8
20260503031544 28 10 14.5 20.9 0.00 0.00 0.00 79 1012.6
20260503030042 28 49 12.9 20.9 0.00 0.00 0.00 78 1012.5
20260503024541 28 32 16.1 22.5 0.00 0.00 0.00 78 1012.4
20260503023140 28 19 11.3 24.1 0.00 0.00 0.00 78 1012.1
20260503021542 29 58 14.5 22.5 0.00 0.00 0.00 77 1012.1
20260503020039 29 37 16.1 22.5 0.00 0.00 0.00 77 1011.7
20260503014535 29 31 12.9 25.7 0.00 0.00 0.00 77 1011.1
20260503013040 29 355 12.9 22.5 0.00 0.00 0.00 76 1010.6
20260503011531 30 355 12.9 24.1 0.00 0.00 0.00 75 1010.0
20260503010030 30 355 14.5 27.4 0.00 0.00 0.00 73 1010.0
20260503004534 30 355 9.7 22.5 0.00 0.00 0.00 73 1008.8